Knox Cnty, Mount Vernon, OH, OH

4:35 PM EDT on October 20, 2019 (GMT -0400)
Knox Cnty, Mount Vernon, OH

Weather History for K4I3 - June, 2019

Change the Weather History Date:

Tuesday, June 4, 2019

  Actual Average (KVTA) Record (KVTA)
Temperature  
Mean Temperature 62 °F -  
Max Temperature 77 °F 77 °F 91 °F (2011)
Min Temperature 48 °F 52 °F 40 °F (1947)
Degree Days  
Heating Degree Days 2    
Growing Degree Days 12 (Base 50)    
Moisture  
Dew Point 52 °F    
Average Humidity 69    
Maximum Humidity 93    
Minimum Humidity 47    
Precipitation  
Precipitation 0.00 in - - ()
Sea Level Pressure  
Sea Level Pressure 30.08 in    
Wind  
Wind Speed 3 mph (South)    
Max Wind Speed 13 mph    
Max Gust Speed 17 mph    
Visibility 10 miles    
Events      
Averages and records for this station are not official NWS values.
T = Trace of Precipitation, MM = Missing Value Source: NWS Daily Summary

Daily Weather History Graph

Daily Weather History Graph

Search for Another Location

Airport or City:

Astronomy

Jun. 04, 2019 Rise Set
Actual Time 6:01 AM EDT 8:55 PM EDT
Civil Twilight 5:28 AM EDT 9:28 PM EDT
Nautical Twilight 4:47 AM EDT 10:09 PM EDT
Astronomical Twilight 4:00 AM EDT 10:57 PM EDT
Moon 7:09 AM EDT (6/4) 10:22 PM EDT (6/4)
Length of Visible Light 15h 59m
Length of Day
14h 54m
New Moon, 2% of the Moon is Illuminated
Jun 4
New Moon
Jun 10
First Quarter
Jun 17
Full
Jun 25
Last Quarter
Jul 2
New

Hourly Weather History & Observations

Time (EDT) Temp. Dew Point Humidity Pressure Visibility Wind Dir Wind Speed Gust Speed Precip Events Conditions
12:15 AM 53.6 °F 44.6 °F 72% 30.16 in 10.0 mi Calm Calm - N/A   Clear
12:36 AM 53.6 °F 44.6 °F 72% 30.15 in 10.0 mi Calm Calm - N/A   Clear
12:55 AM 51.8 °F 44.6 °F 76% 30.15 in 10.0 mi Calm Calm - N/A   Clear
1:15 AM 51.8 °F 46.4 °F 82% 30.15 in 10.0 mi Calm Calm - N/A   Clear
1:36 AM 51.8 °F 46.4 °F 82% 30.15 in 10.0 mi Calm Calm - N/A   Clear
1:56 AM 51.8 °F 46.4 °F 82% 30.14 in 10.0 mi Calm Calm - N/A   Clear
2:15 AM 50.0 °F 46.4 °F 87% 30.14 in 10.0 mi Calm Calm - N/A   Clear
2:36 AM 50.0 °F 44.6 °F 82% 30.14 in 10.0 mi Calm Calm - N/A   Clear
2:56 AM 50.0 °F 44.6 °F 82% 30.14 in 10.0 mi Calm Calm - N/A   Clear
3:15 AM 50.0 °F 44.6 °F 82% 30.14 in 10.0 mi Calm Calm - N/A   Clear
3:36 AM 50.0 °F 46.4 °F 87% 30.15 in 10.0 mi Calm Calm - N/A   Clear
3:56 AM 50.0 °F 46.4 °F 87% 30.15 in 10.0 mi Calm Calm - N/A   Clear
4:15 AM 50.0 °F 44.6 °F 82% 30.15 in 10.0 mi SSW 3.5 mph - N/A   Clear
4:36 AM 50.0 °F 44.6 °F 82% 30.15 in 10.0 mi SSW 3.5 mph - N/A   Clear
4:55 AM 48.2 °F 46.4 °F 93% 30.15 in 10.0 mi Calm Calm - N/A   Clear
5:15 AM 50.0 °F 46.4 °F 87% 30.16 in 10.0 mi Calm Calm - N/A   Clear
5:37 AM 50.0 °F 44.6 °F 82% 30.16 in 10.0 mi Calm Calm - N/A   Clear
5:56 AM 48.2 °F 44.6 °F 87% 30.17 in 10.0 mi Calm Calm - N/A   Clear
6:15 AM 48.2 °F 44.6 °F 87% 30.18 in 10.0 mi SSW 3.5 mph - N/A   Clear
6:35 AM 50.0 °F 44.6 °F 82% 30.17 in 10.0 mi Calm Calm - N/A   Clear
6:55 AM 50.0 °F 44.6 °F 82% 30.17 in 10.0 mi Calm Calm - N/A   Clear
7:15 AM 51.8 °F 46.4 °F 82% 30.17 in 10.0 mi Calm Calm - N/A   Clear
7:35 AM 51.8 °F 46.4 °F 82% 30.17 in 10.0 mi Calm Calm - N/A   Clear
7:56 AM 53.6 °F 48.2 °F 82% 30.16 in 10.0 mi Calm Calm - N/A   Clear
8:15 AM 55.4 °F 48.2 °F 77% 30.16 in 10.0 mi South 3.5 mph - N/A   Clear
8:35 AM 55.4 °F 48.2 °F 77% 30.16 in 10.0 mi South 4.6 mph - N/A   Clear
8:56 AM 57.2 °F 50.0 °F 77% 30.16 in 10.0 mi South 4.6 mph - N/A   Clear
9:16 AM 60.8 °F 50.0 °F 68% 30.15 in 10.0 mi South 6.9 mph - N/A   Clear
9:35 AM 62.6 °F 51.8 °F 68% 30.15 in 10.0 mi SSW 5.8 mph - N/A   Clear
9:56 AM 64.4 °F 51.8 °F 64% 30.14 in 10.0 mi South 6.9 mph - N/A   Clear
10:16 AM 66.2 °F 53.6 °F 64% 30.14 in 10.0 mi South 5.8 mph - N/A   Clear
10:35 AM 68.0 °F 53.6 °F 60% 30.13 in 10.0 mi South 5.8 mph - N/A   Clear
10:56 AM 69.8 °F 53.6 °F 56% 30.13 in 10.0 mi SW 4.6 mph - N/A   Clear
11:15 AM 69.8 °F 53.6 °F 56% 30.12 in 10.0 mi South 5.8 mph - N/A   Clear
11:35 AM 69.8 °F 55.4 °F 60% 30.12 in 10.0 mi SSW 5.8 mph - N/A   Clear
11:55 AM 71.6 °F 55.4 °F 57% 30.12 in 10.0 mi South 4.6 mph - N/A   Clear
12:15 PM 69.8 °F 55.4 °F 60% 30.12 in 10.0 mi South 5.8 mph - N/A   Clear
12:35 PM 68.0 °F 57.2 °F 68% 30.12 in 10.0 mi South 5.8 mph - N/A   Clear
12:55 PM 69.8 °F 57.2 °F 64% 30.12 in 10.0 mi South 5.8 mph - N/A   Clear
1:16 PM 69.8 °F 57.2 °F 64% 30.11 in 10.0 mi South 3.5 mph - N/A   Clear
1:35 PM 69.8 °F 57.2 °F 64% 30.11 in 10.0 mi South 8.1 mph - N/A   Clear
1:55 PM 71.6 °F 57.2 °F 60% 30.10 in 10.0 mi SSW 5.8 mph - N/A   Clear
2:16 PM 73.4 °F 57.2 °F 57% 30.10 in 10.0 mi South 4.6 mph - N/A   Clear
2:35 PM 73.4 °F 57.2 °F 57% 30.09 in 10.0 mi SSW 5.8 mph - N/A   Clear
2:55 PM 75.2 °F 57.2 °F 53% 30.08 in 10.0 mi SSE 6.9 mph - N/A   Clear
3:16 PM 73.4 °F 57.2 °F 57% 30.07 in 10.0 mi SSW 5.8 mph - N/A   Clear
3:36 PM 73.4 °F 57.2 °F 57% 30.06 in 10.0 mi SSW 5.8 mph - N/A   Clear
3:56 PM 75.2 °F 57.2 °F 53% 30.05 in 10.0 mi South 4.6 mph - N/A   Clear
4:15 PM 75.2 °F 57.2 °F 53% 30.05 in 10.0 mi SSW 6.9 mph - N/A   Clear
4:35 PM 75.2 °F 57.2 °F 53% 30.03 in 10.0 mi South 6.9 mph - N/A   Clear
4:56 PM 77.0 °F 59.0 °F 54% 30.02 in 10.0 mi South 8.1 mph - N/A   Clear
5:15 PM 77.0 °F 55.4 °F 47% 30.01 in 10.0 mi South 12.7 mph - N/A   Clear
5:35 PM 77.0 °F 57.2 °F 50% 30.01 in 10.0 mi South 10.4 mph - N/A   Clear
5:56 PM 77.0 °F 57.2 °F 50% 30.00 in 10.0 mi South 8.1 mph - N/A   Clear
6:15 PM 75.2 °F 57.2 °F 53% 29.99 in 10.0 mi South 10.4 mph 17.3 mph N/A   Clear
6:36 PM 75.2 °F 57.2 °F 53% 29.99 in 10.0 mi South 11.5 mph 17.3 mph N/A   Clear
6:56 PM 75.2 °F 57.2 °F 53% 29.98 in 10.0 mi South 10.4 mph - N/A   Clear
7:15 PM 73.4 °F 57.2 °F 57% 29.98 in 10.0 mi South 9.2 mph 16.1 mph N/A   Clear
7:35 PM 73.4 °F 57.2 °F 57% 29.97 in 10.0 mi South 6.9 mph - N/A   Clear
7:56 PM 71.6 °F 57.2 °F 60% 29.96 in 10.0 mi South 6.9 mph - N/A   Clear
8:16 PM 71.6 °F 57.2 °F 60% 29.96 in 10.0 mi South 9.2 mph - N/A   Clear
8:35 PM 71.6 °F 57.2 °F 60% 29.95 in 10.0 mi South 6.9 mph - N/A   Clear
8:56 PM 69.8 °F 57.2 °F 64% 29.95 in 10.0 mi South 6.9 mph - N/A   Clear
9:16 PM 69.8 °F 57.2 °F 64% 29.94 in 10.0 mi South 6.9 mph - N/A   Clear
9:35 PM 68.0 °F 57.2 °F 68% 29.94 in 10.0 mi South 5.8 mph - N/A   Clear
9:55 PM 68.0 °F 57.2 °F 68% 29.95 in 10.0 mi South 3.5 mph - N/A   Clear
10:16 PM 66.2 °F 57.2 °F 73% 29.95 in 10.0 mi South 5.8 mph - N/A   Clear
10:35 PM 66.2 °F 57.2 °F 73% 29.95 in 10.0 mi South 6.9 mph - N/A   Clear
10:55 PM 66.2 °F 57.2 °F 73% 29.96 in 10.0 mi SSW 4.6 mph - N/A   Clear
11:16 PM 64.4 °F 57.2 °F 77% 29.95 in 10.0 mi South 5.8 mph - N/A   Clear
11:35 PM 66.2 °F 59.0 °F 78% 29.95 in 10.0 mi South 4.6 mph - N/A   Scattered Clouds
11:55 PM 66.2 °F 59.0 °F 78% 29.95 in 10.0 mi South 4.6 mph - N/A   Mostly Cloudy